Richmond, VA

11:15 AM EST on February 20, 2018 (GMT -0500)
Richmond International

Weather History for KRIC - March, 2012

Change the Weather History Date:

Friday, March 30, 2012

  Actual Average Record
Temperature  
Mean Temperature 55 °F 53 °F  
Max Temperature 67 °F 65 °F 91 °F (1910)
Min Temperature 43 °F 41 °F 25 °F (1941)
Degree Days  
Heating Degree Days 10 12  
Month to date heating degree days 230 503  
Since 1 July heating degree days 2620 3439  
Cooling Degree Days 0 0  
Month to date cooling degree days 33 0  
Year to date cooling degree days 33 0  
Growing Degree Days 4 (Base 50)    
Moisture  
Dew Point 43 °F    
Average Humidity 71    
Maximum Humidity 89    
Minimum Humidity 52    
Precipitation  
Precipitation 0.00 in 0.13 in 1.94 in (1975)
Month to date precipitation 2.48 3.91  
Year to date precipitation 7.43 9.71  
Snow  
Snow 0.00 in 0.00 in 5.30 in (1964)
Month to date snowfall 0.5 0.6  
Since 1 July snowfall 4.5 10.2  
Snow Depth 0.00 in    
Sea Level Pressure  
Sea Level Pressure 30.02 in    
Wind  
Wind Speed 6 mph (ESE)    
Max Wind Speed 16 mph    
Max Gust Speed 20 mph    
Visibility 10 miles    
Events      
T = Trace of Precipitation, MM = Missing Value Source: NWS Daily Summary

Daily Weather History Graph

Daily Weather History Graph

Search for Another Location

Airport or City:

Trip Planner

Search our weather history database for the weather conditions in past years. The results will help you decide how hot, cold, wet, or windy it might be!

Date:

Astronomy

Mar. 30, 2012 Rise Set
Actual Time 6:57 AM EDT 7:30 PM EDT
Civil Twilight 6:30 AM EDT 7:56 PM EDT
Nautical Twilight 5:59 AM EDT 8:28 PM EDT
Astronomical Twilight 5:28 AM EDT 8:59 PM EDT
Moon 12:06 PM EDT (3/30) 2:00 AM EDT (3/30)
Length of Visible Light 13h 26m
Length of Day
12h 33m
Waxing Crescent, 49% of the Moon is Illuminated
Mar 30
Waxing Crescent
Mar 30
First Quarter
Apr 6
Full
Apr 13
Last Quarter
Apr 21
New

Hourly Weather History & Observations

Time (EDT) Temp. Windchill Dew Point Humidity Pressure Visibility Wind Dir Wind Speed Gust Speed Precip Events Conditions
12:54 AM 52.0 °F - 39.9 °F 63% 30.04 in 10.0 mi ENE 3.5 mph - N/A   Mostly Cloudy
1:54 AM 51.1 °F - 39.0 °F 63% 30.06 in 10.0 mi Calm Calm - N/A   Mostly Cloudy
2:54 AM 46.0 °F - 39.9 °F 79% 30.06 in 10.0 mi Calm Calm - N/A   Mostly Cloudy
3:54 AM 48.0 °F - 39.0 °F 71% 30.05 in 10.0 mi ENE 3.5 mph - N/A   Scattered Clouds
4:54 AM 44.1 °F - 39.0 °F 82% 30.07 in 10.0 mi Calm Calm - N/A   Scattered Clouds
5:54 AM 43.0 °F 41.3 °F 39.0 °F 86% 30.08 in 10.0 mi NE 3.5 mph - N/A   Scattered Clouds
6:54 AM 44.6 °F 40.7 °F 39.2 °F 81% 30.07 in 10.0 mi NE 6.9 mph - N/A   Partly Cloudy
7:54 AM 46.0 °F 43.1 °F 39.9 °F 79% 30.10 in 10.0 mi NE 5.8 mph - N/A   Partly Cloudy
8:54 AM 48.9 °F - 39.9 °F 71% 30.13 in 10.0 mi East 6.9 mph - N/A   Partly Cloudy
9:54 AM 53.1 °F - 41.0 °F 64% 30.12 in 10.0 mi East 4.6 mph - N/A   Partly Cloudy
10:54 AM 57.0 °F - 42.1 °F 57% 30.12 in 10.0 mi Calm Calm - N/A   Scattered Clouds
11:54 AM 57.9 °F - 43.0 °F 58% 30.10 in 10.0 mi Variable 5.8 mph - N/A   Mostly Cloudy
12:54 PM 60.1 °F - 45.0 °F 57% 30.06 in 10.0 mi South 4.6 mph - N/A   Mostly Cloudy
1:54 PM 63.0 °F - 45.0 °F 52% 30.04 in 10.0 mi SSW 6.9 mph - N/A   Overcast
2:54 PM 64.0 °F - 46.0 °F 52% 30.00 in 10.0 mi ESE 8.1 mph - N/A   Mostly Cloudy
3:54 PM 64.9 °F - 48.0 °F 54% 29.97 in 10.0 mi Variable 3.5 mph - N/A   Mostly Cloudy
4:54 PM 66.0 °F - 48.0 °F 52% 29.95 in 10.0 mi South 10.4 mph 17.3 mph N/A   Scattered Clouds
5:54 PM 66.0 °F - 48.0 °F 52% 29.94 in 10.0 mi SE 8.1 mph - N/A   Partly Cloudy
6:54 PM 63.0 °F - 46.9 °F 56% 29.94 in 10.0 mi SE 13.8 mph - N/A   Scattered Clouds
7:54 PM 57.9 °F - 46.0 °F 65% 29.94 in 10.0 mi SE 11.5 mph - N/A   Scattered Clouds
8:54 PM 55.0 °F - 45.0 °F 69% 29.95 in 10.0 mi ESE 11.5 mph - N/A   Partly Cloudy
9:54 PM 53.1 °F - 46.0 °F 77% 29.92 in 10.0 mi SE 10.4 mph - N/A   Scattered Clouds
10:54 PM 51.1 °F - 46.0 °F 83% 29.90 in 10.0 mi ESE 5.8 mph - N/A   Partly Cloudy
11:54 PM 51.1 °F - 46.9 °F 86% 29.88 in 10.0 mi ESE 4.6 mph - N/A   Scattered Clouds